,,,PA_Meas_PMT16A,,PR_Meas_QMR101_102,,RH_Meas_QMH101,,SR_Meas_QMS101,,TA_Meas_QMH101,,GenWind,,GenWind,
date,time,status,PA,status,PR,status,RH,status,SR,status,TA,status,DirAvg,status,SpdAvg,
2011-10-05, 00:00:04,VALID,1005.53,VALID,0,VALID,94.1251,VALID,0,VALID,24.13,VALID,360,VALID,0.366016,
2011-10-05, 00:01:04,VALID,1005.54,VALID,0,VALID,94.1175,VALID,0,VALID,24.1494,VALID,360,VALID,0.533203,
2011-10-05, 00:02:04,VALID,1005.5,VALID,0,VALID,94.1785,VALID,0,VALID,24.1902,VALID,359,VALID,0.511719,
2011-10-05, 00:03:04,VALID,1005.51,VALID,0,VALID,93.9039,VALID,0,VALID,24.1689,VALID,357,VALID,0.571875,
2011-10-05, 00:04:04,VALID,1005.51,VALID,0,VALID,93.9725,VALID,0,VALID,24.2097,VALID,355,VALID,0.90625,
2011-10-05, 00:05:04,VALID,1005.52,VALID,0,VALID,93.7742,VALID,0,VALID,24.2486,VALID,344,VALID,0.797656,
2011-10-05, 00:06:04,VALID,1005.54,VALID,0,VALID,93.5682,VALID,0,VALID,24.2662,VALID,345,VALID,0.780469,
2011-10-05, 00:07:04,VALID,1005.53,VALID,0,VALID,93.3622,VALID,0,VALID,24.3052,VALID,346,VALID,1.05508,
2011-10-05, 00:08:04,VALID,1005.55,VALID,0,VALID,93.0571,VALID,0,VALID,24.3052,VALID,347,VALID,1.05781,
2011-10-05, 00:09:04,VALID,1005.52,VALID,0,VALID,92.7901,VALID,0,VALID,24.3654,VALID,342,VALID,0.927344,
2011-10-05, 00:10:04,VALID,1005.53,VALID,0,VALID,92.4697,VALID,0,VALID,24.3441,VALID,340,VALID,1.12188,
2011-10-05, 00:11:04,VALID,1005.5,VALID,0,VALID,92.2255,VALID,0,VALID,24.4238,VALID,349,VALID,1.15586,
2011-10-05, 00:12:04,VALID,1005.52,VALID,0,VALID,91.7297,VALID,0,VALID,24.5193,VALID,342,VALID,1.72656,
2011-10-05, 00:13:04,VALID,1005.48,VALID,0,VALID,91.0431,VALID,0,VALID,24.6556,VALID,356,VALID,1.34727,
2011-10-05, 00:14:04,VALID,1005.48,VALID,0,VALID,90.4633,VALID,0,VALID,24.7724,VALID,355,VALID,1.33984,
2011-10-05, 00:15:04,VALID,1005.48,VALID,0,VALID,90.1352,VALID,0,VALID,24.8716,VALID,347,VALID,1.58711,
2011-10-05, 00:16:04,VALID,1005.45,VALID,0,VALID,89.8148,VALID,0,VALID,24.969,VALID,351,VALID,1.11016,
2011-10-05, 00:17:04,VALID,1005.46,VALID,0,VALID,89.2579,VALID,0,VALID,25.0255,VALID,335,VALID,1.21992,
2011-10-05, 00:18:04,VALID,1005.46,VALID,0,VALID,89.0519,VALID,0.0815089,VALID,25.0625,VALID,348,VALID,1.66797,
2011-10-05, 00:19:04,VALID,1005.46,VALID,0,VALID,88.8078,VALID,0,VALID,25.121,VALID,338,VALID,1.38008,
2011-10-05, 00:20:04,VALID,1005.44,VALID,0,VALID,88.6934,VALID,0.0815089,VALID,25.1813,VALID,349,VALID,1.27422,
2011-10-05, 00:21:04,VALID,1005.45,VALID,0,VALID,88.4264,VALID,0,VALID,25.1794,VALID,346,VALID,0.977344,
2011-10-05, 00:22:04,VALID,1005.43,VALID,0,VALID,88.5637,VALID,0,VALID,25.1988,VALID,343,VALID,0.81875,
2011-10-05, 00:23:04,VALID,1005.44,VALID,0,VALID,88.7162,VALID,0.0815089,VALID,25.2183,VALID,354,VALID,0.937891,
2011-10-05, 00:24:04,VALID,1005.4,VALID,0,VALID,88.5637,VALID,0.0815089,VALID,25.1988,VALID,357,VALID,0.329688,
2011-10-05, 00:25:04,VALID,1005.42,VALID,0,VALID,88.7468,VALID,0.0815089,VALID,25.2397,VALID,357,VALID,0.287891,
2011-10-05, 00:26:04,VALID,1005.41,VALID,0,VALID,88.6781,VALID,0.0815089,VALID,25.2202,VALID,357,VALID,0.335156,
2011-10-05, 00:27:04,VALID,1005.41,VALID,0,VALID,88.8078,VALID,0,VALID,25.2183,VALID,357,VALID,0.0382813,
2011-10-05, 00:28:04,VALID,1005.37,VALID,0,VALID,89.0138,VALID,0.0815089,VALID,25.2183,VALID,358,VALID,0.234766,
2011-10-05, 00:29:04,VALID,1005.37,VALID,0,VALID,89.0824,VALID,0,VALID,25.2183,VALID,1,VALID,0.285547,
2011-10-05, 00:30:04,VALID,1005.36,VALID,0,VALID,89.2884,VALID,0.0815089,VALID,25.2007,VALID,5,VALID,0.244531,
2011-10-05, 00:31:04,VALID,1005.34,VALID,0,VALID,89.5097,VALID,0,VALID,25.1599,VALID,5,VALID,0.0175781,
2011-10-05, 00:32:04,VALID,1005.31,VALID,0,VALID,89.769,VALID,0,VALID,25.1618,VALID,5,VALID,0.266016,
2011-10-05, 00:33:04,VALID,1005.31,VALID,0,VALID,89.9369,VALID,0,VALID,25.1034,VALID,4,VALID,0.676953,
2011-10-05, 00:34:04,VALID,1005.31,VALID,0,VALID,90.0971,VALID,0,VALID,25.0255,VALID,4,VALID,0.535937,
2011-10-05, 00:35:04,VALID,1005.29,VALID,0,VALID,90.4175,VALID,0,VALID,25.0236,VALID,349,VALID,0.519922,
2011-10-05, 00:36:04,VALID,1005.28,VALID,0,VALID,90.7303,VALID,0,VALID,25.0255,VALID,28,VALID,0.504687,
2011-10-05, 00:37:04,VALID,1005.28,VALID,0,VALID,90.86,VALID,0.0815089,VALID,24.9866,VALID,83,VALID,0.352344,
2011-10-05, 00:38:04,VALID,1005.25,VALID,0,VALID,90.8447,VALID,0,VALID,24.9671,VALID,83,VALID,0,
2011-10-05, 00:39:04,VALID,1005.25,VALID,0,VALID,90.8981,VALID,0,VALID,24.9282,VALID,82,VALID,0.0171875,
2011-10-05, 00:40:04,VALID,1005.22,VALID,0,VALID,90.8829,VALID,0.0815089,VALID,24.9087,VALID,60,VALID,0.448047,
2011-10-05, 00:41:04,VALID,1005.21,VALID,0,VALID,91.0583,VALID,0,VALID,24.9087,VALID,48,VALID,0.198437,
2011-10-05, 00:42:04,VALID,1005.22,VALID,0,VALID,90.9973,VALID,0,VALID,24.8679,VALID,47,VALID,0.394531,
2011-10-05, 00:43:04,VALID,1005.21,VALID,0,VALID,91.1804,VALID,0,VALID,24.8892,VALID,47,VALID,0.255078,
2011-10-05, 00:44:04,VALID,1005.23,VALID,0,VALID,91.4321,VALID,0.0815089,VALID,24.8697,VALID,47,VALID,0.0359375,
2011-10-05, 00:45:04,VALID,1005.22,VALID,0,VALID,91.6,VALID,0.0815089,VALID,24.8484,VALID,47,VALID,0,
2011-10-05, 00:46:04,VALID,1005.21,VALID,0,VALID,91.7678,VALID,0,VALID,24.8484,VALID,47,VALID,0,
2011-10-05, 00:47:04,VALID,1005.22,VALID,0,VALID,91.7754,VALID,0,VALID,24.8308,VALID,47,VALID,0.481641,
2011-10-05, 00:48:04,VALID,1005.22,VALID,0,VALID,91.7983,VALID,0,VALID,24.8113,VALID,47,VALID,0.288281,
2011-10-05, 00:49:04,VALID,1005.23,VALID,0,VALID,91.722,VALID,0,VALID,24.7919,VALID,47,VALID,0.046875,
2011-10-05, 00:50:04,VALID,1005.21,VALID,0,VALID,91.7068,VALID,0,VALID,24.7919,VALID,47,VALID,0,
2011-10-05, 00:51:04,VALID,1005.2,VALID,0,VALID,91.7144,VALID,0,VALID,24.7724,VALID,47,VALID,0,
2011-10-05, 00:52:04,VALID,1005.2,VALID,0,VALID,91.7525,VALID,0,VALID,24.7316,VALID,47,VALID,0.0148437,
2011-10-05, 00:53:04,VALID,1005.2,VALID,0,VALID,91.8136,VALID,0,VALID,24.7335,VALID,47,VALID,0.121484,
2011-10-05, 00:54:04,VALID,1005.2,VALID,0,VALID,92.0348,VALID,0,VALID,24.714,VALID,47,VALID,0.40625,
2011-10-05, 00:55:04,VALID,1005.18,VALID,0,VALID,92.0119,VALID,0.0815089,VALID,24.6926,VALID,47,VALID,0.361328,
2011-10-05, 00:56:04,VALID,1005.18,VALID,0,VALID,92.0501,VALID,0.0815089,VALID,24.675,VALID,47,VALID,0.238281,
2011-10-05, 00:57:04,VALID,1005.17,VALID,0,VALID,92.0348,VALID,0,VALID,24.675,VALID,47,VALID,0.0566406,
2011-10-05, 00:58:04,VALID,1005.12,VALID,0,VALID,92.195,VALID,0,VALID,24.6556,VALID,47,VALID,0.384375,
2011-10-05, 00:59:04,VALID,1005.13,VALID,0,VALID,92.2637,VALID,0,VALID,24.6361,VALID,45,VALID,0.294922,
2011-10-05, 01:00:04,VALID,1005.13,VALID,0,VALID,92.3476,VALID,0,VALID,24.5972,VALID,45,VALID,0.5125,
2011-10-05, 01:01:04,VALID,1005.1,VALID,0,VALID,92.4239,VALID,0,VALID,24.6166,VALID,42,VALID,0.353125,
2011-10-05, 01:02:04,VALID,1005.12,VALID,0,VALID,92.4468,VALID,0,VALID,24.5972,VALID,42,VALID,0.383203,
2011-10-05, 01:03:04,VALID,1005.1,VALID,0,VALID,92.4315,VALID,0,VALID,24.5564,VALID,42,VALID,0.261328,
2011-10-05, 01:04:04,VALID,1005.07,VALID,0,VALID,92.5154,VALID,0,VALID,24.5174,VALID,42,VALID,0.394141,
2011-10-05, 01:05:04,VALID,1005.07,VALID,0,VALID,92.607,VALID,0.0815089,VALID,24.498,VALID,40,VALID,0.486328,
2011-10-05, 01:06:04,VALID,1005.05,VALID,0,VALID,92.5536,VALID,0,VALID,24.5193,VALID,40,VALID,0.378906,
2011-10-05, 01:07:04,VALID,1005.05,VALID,0,VALID,92.6299,VALID,0,VALID,24.4804,VALID,32,VALID,0.346094,
2011-10-05, 01:08:04,VALID,1005.04,VALID,0,VALID,92.729,VALID,0,VALID,24.4396,VALID,32,VALID,0.000390625,
2011-10-05, 01:09:04,VALID,1005.07,VALID,0,VALID,92.8206,VALID,0,VALID,24.4006,VALID,32,VALID,0.00585938,
2011-10-05, 01:10:04,VALID,1005.1,VALID,0,VALID,92.7824,VALID,0,VALID,24.383,VALID,32,VALID,0.199609,
2011-10-05, 01:11:04,VALID,1005.11,VALID,0,VALID,92.8892,VALID,0,VALID,24.3441,VALID,32,VALID,0.182031,
2011-10-05, 01:12:04,VALID,1005.14,VALID,0,VALID,93.1257,VALID,0.0815089,VALID,24.3246,VALID,32,VALID,0.389453,
2011-10-05, 01:13:04,VALID,1005.13,VALID,0,VALID,93.2936,VALID,0,VALID,24.3033,VALID,32,VALID,0.393359,
2011-10-05, 01:14:04,VALID,1005.12,VALID,0,VALID,93.2631,VALID,0,VALID,24.3052,VALID,32,VALID,0.0800781,
2011-10-05, 01:15:04,VALID,1005.12,VALID,0,VALID,93.2402,VALID,0,VALID,24.2857,VALID,32,VALID,0.275781,
2011-10-05, 01:16:04,VALID,1005.11,VALID,0,VALID,93.4233,VALID,0,VALID,24.2662,VALID,32,VALID,0.473828,
2011-10-05, 01:17:04,VALID,1005.11,VALID,0,VALID,93.4309,VALID,0,VALID,24.2662,VALID,32,VALID,0.5125,
2011-10-05, 01:18:04,VALID,1005.12,VALID,0,VALID,93.5453,VALID,0.0815089,VALID,24.2857,VALID,32,VALID,0.26875,
2011-10-05, 01:19:04,VALID,1005.11,VALID,0,VALID,93.5606,VALID,0,VALID,24.2644,VALID,32,VALID,0.304297,
2011-10-05, 01:20:04,VALID,1005.11,VALID,0,VALID,93.5072,VALID,0,VALID,24.2662,VALID,32,VALID,0.233203,
2011-10-05, 01:21:04,VALID,1005.14,VALID,0,VALID,93.5911,VALID,0.0815089,VALID,24.2449,VALID,32,VALID,0.519922,
2011-10-05, 01:22:04,VALID,1005.14,VALID,0,VALID,93.5987,VALID,0.0815089,VALID,24.2662,VALID,32,VALID,0.292969,
2011-10-05, 01:23:04,VALID,1005.14,VALID,0,VALID,93.6903,VALID,0,VALID,24.2449,VALID,32,VALID,0.504297,
2011-10-05, 01:24:04,VALID,1005.14,VALID,0,VALID,93.7055,VALID,0,VALID,24.2255,VALID,32,VALID,0.334766,
2011-10-05, 01:25:04,VALID,1005.12,VALID,0,VALID,93.6598,VALID,0.0815089,VALID,24.2449,VALID,54,VALID,0.65,
2011-10-05, 01:26:04,VALID,1005.12,VALID,0,VALID,93.6292,VALID,0.0815089,VALID,24.2449,VALID,44,VALID,0.423047,
2011-10-05, 01:27:04,VALID,1005.11,VALID,0,VALID,93.5453,VALID,0.0815089,VALID,24.2449,VALID,44,VALID,0.351563,
2011-10-05, 01:28:04,VALID,1005.09,VALID,0,VALID,93.6369,VALID,0.0815089,VALID,24.2449,VALID,44,VALID,0.422656,
2011-10-05, 01:29:04,VALID,1005.07,VALID,0,VALID,93.7055,VALID,0.0815089,VALID,24.2662,VALID,44,VALID,0.217969,
2011-10-05, 01:30:04,VALID,1005.06,VALID,0,VALID,93.6369,VALID,0.0815089,VALID,24.2644,VALID,43,VALID,0.385547,
2011-10-05, 01:31:04,VALID,1005.07,VALID,0,VALID,93.5987,VALID,0.0815089,VALID,24.2839,VALID,40,VALID,0.360938,
2011-10-05, 01:32:04,VALID,1005.05,VALID,0,VALID,93.5987,VALID,0.0815089,VALID,24.2644,VALID,40,VALID,0.403906,
2011-10-05, 01:33:04,VALID,1005.03,VALID,0,VALID,93.5987,VALID,0,VALID,24.2662,VALID,40,VALID,0.328125,
2011-10-05, 01:34:04,VALID,1004.99,VALID,0,VALID,93.5453,VALID,0,VALID,24.2468,VALID,40,VALID,0.581641,
2011-10-05, 01:35:04,VALID,1005,VALID,0,VALID,93.5758,VALID,0,VALID,24.2486,VALID,40,VALID,0.400781,
2011-10-05, 01:36:04,VALID,1004.99,VALID,0,VALID,93.6369,VALID,0,VALID,24.2291,VALID,40,VALID,0.195703,
2011-10-05, 01:37:04,VALID,1004.99,VALID,0,VALID,93.6979,VALID,0,VALID,24.2078,VALID,40,VALID,0.273438,
2011-10-05, 01:38:04,VALID,1004.94,VALID,0,VALID,93.6674,VALID,0,VALID,24.1902,VALID,36,VALID,0.621484,
2011-10-05, 01:39:04,VALID,1004.93,VALID,0,VALID,93.7208,VALID,0,VALID,24.1494,VALID,36,VALID,0.435156,
2011-10-05, 01:40:04,VALID,1004.92,VALID,0,VALID,93.7666,VALID,0,VALID,24.13,VALID,36,VALID,0.464063,
2011-10-05, 01:41:04,VALID,1004.92,VALID,0,VALID,93.8581,VALID,0,VALID,24.13,VALID,36,VALID,0.466797,
2011-10-05, 01:42:04,VALID,1004.89,VALID,0,VALID,93.8734,VALID,0,VALID,24.1494,VALID,32,VALID,0.439453,
2011-10-05, 01:43:04,VALID,1004.9,VALID,0,VALID,93.881,VALID,0,VALID,24.1513,VALID,32,VALID,0.484766,
2011-10-05, 01:44:04,VALID,1004.89,VALID,0,VALID,93.8734,VALID,0,VALID,24.13,VALID,32,VALID,0.347266,
2011-10-05, 01:45:04,VALID,1004.87,VALID,0,VALID,93.8657,VALID,0,VALID,24.1105,VALID,32,VALID,0.00585938,
2011-10-05, 01:46:04,VALID,1004.85,VALID,0,VALID,93.8429,VALID,0,VALID,24.1105,VALID,32,VALID,0.00117188,
2011-10-05, 01:47:04,VALID,1004.86,VALID,0,VALID,93.8352,VALID,0,VALID,24.0716,VALID,32,VALID,0.000390625,
2011-10-05, 01:48:04,VALID,1004.81,VALID,0,VALID,93.8352,VALID,0.0815089,VALID,24.0503,VALID,32,VALID,0.247266,
2011-10-05, 01:49:04,VALID,1004.82,VALID,0,VALID,93.8963,VALID,0.0815089,VALID,24.0716,VALID,32,VALID,0.142188,
2011-10-05, 01:50:04,VALID,1004.84,VALID,0,VALID,93.9497,VALID,0.0815089,VALID,24.0308,VALID,32,VALID,0.311719,
2011-10-05, 01:51:04,VALID,1004.81,VALID,0,VALID,94.0717,VALID,0.0815089,VALID,24.0114,VALID,32,VALID,0.208203,
2011-10-05, 01:52:04,VALID,1004.8,VALID,0,VALID,94.2014,VALID,0.0815089,VALID,23.9901,VALID,32,VALID,0.334375,
2011-10-05, 01:53:04,VALID,1004.82,VALID,0,VALID,94.2701,VALID,0.0815089,VALID,24.0114,VALID,32,VALID,0.497656,
2011-10-05, 01:54:04,VALID,1004.82,VALID,0,VALID,94.2319,VALID,0.0815089,VALID,24.0114,VALID,32,VALID,0.312109,
2011-10-05, 01:55:04,VALID,1004.82,VALID,0,VALID,94.2319,VALID,0.0815089,VALID,23.9901,VALID,32,VALID,0.407813,
2011-10-05, 01:56:04,VALID,1004.79,VALID,0,VALID,94.3082,VALID,0,VALID,23.9919,VALID,32,VALID,0.310156,
2011-10-05, 01:57:04,VALID,1004.81,VALID,0,VALID,94.3998,VALID,0.0815089,VALID,23.9919,VALID,32,VALID,0.351172,
2011-10-05, 01:58:04,VALID,1004.77,VALID,0,VALID,94.3998,VALID,0.0815089,VALID,23.9937,VALID,32,VALID,0.267578,
2011-10-05, 01:59:04,VALID,1004.76,VALID,0,VALID,94.4913,VALID,0.0815089,VALID,23.9937,VALID,32,VALID,0.499609,
2011-10-05, 02:00:04,VALID,1004.77,VALID,0,VALID,94.6134,VALID,0.0815089,VALID,24.0326,VALID,32,VALID,0.351953,
2011-10-05, 02:01:04,VALID,1004.81,VALID,0,VALID,94.6668,VALID,0.0815089,VALID,24.0326,VALID,32,VALID,0.202344,
2011-10-05, 02:02:04,VALID,1004.78,VALID,0,VALID,94.6363,VALID,0.0815089,VALID,24.0114,VALID,32,VALID,0.365234,
2011-10-05, 02:03:04,VALID,1004.78,VALID,0,VALID,94.6973,VALID,0,VALID,24.0114,VALID,32,VALID,0.158203,
2011-10-05, 02:04:04,VALID,1004.75,VALID,0,VALID,94.7049,VALID,0,VALID,23.9919,VALID,32,VALID,0.318359,
2011-10-05, 02:05:04,VALID,1004.77,VALID,0,VALID,94.682,VALID,0,VALID,24.0132,VALID,32,VALID,0.369922,
2011-10-05, 02:06:04,VALID,1004.73,VALID,0,VALID,94.7049,VALID,0,VALID,24.0326,VALID,32,VALID,0.311719,
2011-10-05, 02:07:04,VALID,1004.71,VALID,0,VALID,94.7507,VALID,0,VALID,24.0132,VALID,32,VALID,0.426562,
2011-10-05, 02:08:04,VALID,1004.7,VALID,0,VALID,94.6668,VALID,0,VALID,23.9937,VALID,32,VALID,0.371484,
2011-10-05, 02:09:04,VALID,1004.66,VALID,0,VALID,94.5142,VALID,0,VALID,23.9937,VALID,32,VALID,0.482031,
2011-10-05, 02:10:04,VALID,1004.65,VALID,0,VALID,94.4074,VALID,0,VALID,23.9548,VALID,32,VALID,0.439063,
2011-10-05, 02:11:04,VALID,1004.64,VALID,0,VALID,94.3845,VALID,0,VALID,23.9353,VALID,32,VALID,0.213672,
2011-10-05, 02:12:04,VALID,1004.63,VALID,0,VALID,94.4684,VALID,0,VALID,23.9177,VALID,32,VALID,0.225,
2011-10-05, 02:13:04,VALID,1004.64,VALID,0,VALID,94.4837,VALID,0,VALID,23.914,VALID,32,VALID,0.253125,
2011-10-05, 02:14:04,VALID,1004.64,VALID,0,VALID,94.6286,VALID,0,VALID,23.8946,VALID,32,VALID,0.126563,
2011-10-05, 02:15:04,VALID,1004.64,VALID,0,VALID,94.6515,VALID,0,VALID,23.9159,VALID,32,VALID,0.116016,
2011-10-05, 02:16:04,VALID,1004.65,VALID,0,VALID,94.8651,VALID,0,VALID,23.9548,VALID,32,VALID,0.235156,
2011-10-05, 02:17:04,VALID,1004.63,VALID,0,VALID,94.9262,VALID,0,VALID,23.9742,VALID,32,VALID,0.0046875,
2011-10-05, 02:18:04,VALID,1004.62,VALID,0,VALID,94.9567,VALID,0,VALID,23.9742,VALID,32,VALID,0.38125,
2011-10-05, 02:19:04,VALID,1004.59,VALID,0,VALID,94.9567,VALID,0,VALID,23.9937,VALID,32,VALID,0.299609,
2011-10-05, 02:20:04,VALID,1004.62,VALID,0,VALID,94.8575,VALID,0,VALID,24.015,VALID,32,VALID,0.216016,
2011-10-05, 02:21:04,VALID,1004.56,VALID,0,VALID,94.8194,VALID,0,VALID,23.9937,VALID,32,VALID,0.278125,
2011-10-05, 02:22:04,VALID,1004.6,VALID,0,VALID,94.8422,VALID,0,VALID,23.9937,VALID,32,VALID,0.251172,
2011-10-05, 02:23:04,VALID,1004.57,VALID,0,VALID,94.7812,VALID,0,VALID,23.9742,VALID,32,VALID,0.0421875,
2011-10-05, 02:24:04,VALID,1004.55,VALID,0,VALID,94.8575,VALID,0,VALID,24.015,VALID,32,VALID,0.157031,
2011-10-05, 02:25:04,VALID,1004.58,VALID,0,VALID,94.8499,VALID,0,VALID,24.015,VALID,32,VALID,0.107813,
2011-10-05, 02:26:04,VALID,1004.58,VALID,0,VALID,94.8117,VALID,0,VALID,23.9742,VALID,32,VALID,0.232422,
2011-10-05, 02:27:04,VALID,1004.56,VALID,0,VALID,94.7965,VALID,0,VALID,23.9742,VALID,32,VALID,0.228125,
2011-10-05, 02:28:04,VALID,1004.6,VALID,0,VALID,94.827,VALID,0,VALID,23.9761,VALID,32,VALID,0.146484,
2011-10-05, 02:29:04,VALID,1004.62,VALID,0,VALID,94.8728,VALID,0,VALID,23.9761,VALID,32,VALID,0.155469,
2011-10-05, 02:30:04,VALID,1004.6,VALID,0,VALID,94.9262,VALID,0,VALID,23.9548,VALID,32,VALID,0.307422,
2011-10-05, 02:31:04,VALID,1004.6,VALID,0,VALID,94.9338,VALID,0,VALID,23.9761,VALID,32,VALID,0.284375,
2011-10-05, 02:32:04,VALID,1004.61,VALID,0,VALID,94.8499,VALID,0,VALID,23.9761,VALID,32,VALID,0.223047,
2011-10-05, 02:33:04,VALID,1004.63,VALID,0,VALID,94.8346,VALID,0,VALID,23.9566,VALID,32,VALID,0.348047,
2011-10-05, 02:34:04,VALID,1004.6,VALID,0,VALID,94.7125,VALID,0,VALID,23.9371,VALID,32,VALID,0.19375,
2011-10-05, 02:35:04,VALID,1004.64,VALID,0,VALID,94.7354,VALID,0,VALID,23.8964,VALID,32,VALID,0.317578,
2011-10-05, 02:36:04,VALID,1004.66,VALID,0,VALID,94.827,VALID,0,VALID,23.9159,VALID,32,VALID,0.181641,
2011-10-05, 02:37:04,VALID,1004.63,VALID,0,VALID,94.8499,VALID,0,VALID,23.9177,VALID,32,VALID,0.0746094,
2011-10-05, 02:38:04,VALID,1004.66,VALID,0,VALID,94.8499,VALID,0,VALID,23.9371,VALID,32,VALID,0.216406,
2011-10-05, 02:39:04,VALID,1004.65,VALID,0,VALID,95.0101,VALID,0,VALID,23.9353,VALID,32,VALID,0,
2011-10-05, 02:40:04,VALID,1004.64,VALID,0,VALID,94.9872,VALID,0,VALID,23.9761,VALID,32,VALID,0.109375,
2011-10-05, 02:41:04,VALID,1004.64,VALID,0,VALID,94.9033,VALID,0,VALID,23.9353,VALID,32,VALID,0.441797,
2011-10-05, 02:42:04,VALID,1004.63,VALID,0,VALID,94.8804,VALID,0,VALID,23.9548,VALID,32,VALID,0.3125,
2011-10-05, 02:43:04,VALID,1004.62,VALID,0,VALID,94.827,VALID,0,VALID,23.9761,VALID,32,VALID,0.341797,
2011-10-05, 02:44:04,VALID,1004.63,VALID,0,VALID,94.8728,VALID,0,VALID,23.9548,VALID,32,VALID,0.432813,
2011-10-05, 02:45:04,VALID,1004.63,VALID,0,VALID,94.8651,VALID,0,VALID,23.9548,VALID,32,VALID,0.135547,
2011-10-05, 02:46:04,VALID,1004.62,VALID,0,VALID,94.888,VALID,0,VALID,23.9353,VALID,32,VALID,0.065625,
2011-10-05, 02:47:04,VALID,1004.62,VALID,0,VALID,94.9185,VALID,0,VALID,23.9548,VALID,32,VALID,0.164063,
2011-10-05, 02:48:04,VALID,1004.63,VALID,0,VALID,95.0635,VALID,0,VALID,23.9724,VALID,32,VALID,0.226953,
2011-10-05, 02:49:04,VALID,1004.65,VALID,0,VALID,95.1093,VALID,0.0815089,VALID,23.9919,VALID,32,VALID,0,
2011-10-05, 02:50:04,VALID,1004.63,VALID,0,VALID,95.1703,VALID,0,VALID,24.0326,VALID,32,VALID,0.0210938,
2011-10-05, 02:51:04,VALID,1004.64,VALID,0,VALID,95.1627,VALID,0,VALID,24.0521,VALID,32,VALID,0.115234,
2011-10-05, 02:52:04,VALID,1004.63,VALID,0,VALID,95.0253,VALID,0.0815089,VALID,24.0521,VALID,32,VALID,0.242188,
2011-10-05, 02:53:04,VALID,1004.6,VALID,0,VALID,94.9796,VALID,0,VALID,24.0114,VALID,32,VALID,0.269141,
2011-10-05, 02:54:04,VALID,1004.64,VALID,0,VALID,94.9414,VALID,0,VALID,24.0308,VALID,32,VALID,0.308594,
2011-10-05, 02:55:04,VALID,1004.62,VALID,0,VALID,94.827,VALID,0.0815089,VALID,24.0308,VALID,32,VALID,0.192578,
2011-10-05, 02:56:04,VALID,1004.63,VALID,0,VALID,94.8651,VALID,0.0815089,VALID,24.0308,VALID,32,VALID,0.157813,
2011-10-05, 02:57:04,VALID,1004.61,VALID,0,VALID,95.1627,VALID,0.0815089,VALID,24.0697,VALID,32,VALID,0.309766,
2011-10-05, 02:58:04,VALID,1004.59,VALID,0,VALID,95.1245,VALID,0,VALID,24.1105,VALID,32,VALID,0.204297,
2011-10-05, 02:59:04,VALID,1004.62,VALID,0,VALID,95.1703,VALID,0.0815089,VALID,24.1689,VALID,32,VALID,0.150391,
2011-10-05, 03:00:04,VALID,1004.59,VALID,0,VALID,95.1321,VALID,0.0815089,VALID,24.1865,VALID,35,VALID,0.204688,
2011-10-05, 03:01:04,VALID,1004.61,VALID,0,VALID,95.0406,VALID,0.0815089,VALID,24.1865,VALID,35,VALID,0,
2011-10-05, 03:02:04,VALID,1004.6,VALID,0,VALID,95.0024,VALID,0,VALID,24.2078,VALID,36,VALID,0.199609,
2011-10-05, 03:03:04,VALID,1004.58,VALID,0,VALID,94.9033,VALID,0,VALID,24.2078,VALID,36,VALID,0,
2011-10-05, 03:04:04,VALID,1004.6,VALID,0,VALID,94.8651,VALID,0,VALID,24.2078,VALID,36,VALID,0.153516,
2011-10-05, 03:05:04,VALID,1004.6,VALID,0,VALID,94.7583,VALID,0,VALID,24.2078,VALID,36,VALID,0.340625,
2011-10-05, 03:06:04,VALID,1004.58,VALID,0,VALID,94.8117,VALID,0,VALID,24.2078,VALID,36,VALID,0.399219,
2011-10-05, 03:07:04,VALID,1004.58,VALID,0,VALID,94.7888,VALID,0,VALID,24.2078,VALID,37,VALID,0.189453,
2011-10-05, 03:08:04,VALID,1004.61,VALID,0,VALID,94.8422,VALID,0,VALID,24.2291,VALID,68,VALID,0.209375,
2011-10-05, 03:09:04,VALID,1004.62,VALID,0,VALID,94.7965,VALID,0,VALID,24.2291,VALID,68,VALID,0.160938,
2011-10-05, 03:10:04,VALID,1004.6,VALID,0,VALID,94.7202,VALID,0,VALID,24.2097,VALID,68,VALID,0.254297,
2011-10-05, 03:11:04,VALID,1004.6,VALID,0,VALID,94.8041,VALID,0,VALID,24.2291,VALID,69,VALID,0.389844,
2011-10-05, 03:12:04,VALID,1004.58,VALID,0,VALID,94.7278,VALID,0,VALID,24.1865,VALID,73,VALID,0.162109,
2011-10-05, 03:13:04,VALID,1004.62,VALID,0,VALID,94.6134,VALID,0,VALID,24.2291,VALID,73,VALID,0.0621094,
2011-10-05, 03:14:04,VALID,1004.59,VALID,0,VALID,94.5371,VALID,0,VALID,24.1884,VALID,73,VALID,0.165234,
2011-10-05, 03:15:04,VALID,1004.62,VALID,0,VALID,94.4455,VALID,0,VALID,24.1902,VALID,73,VALID,0.178906,
2011-10-05, 03:16:04,VALID,1004.61,VALID,0,VALID,94.4684,VALID,0,VALID,24.192,VALID,73,VALID,0.0640625,
2011-10-05, 03:17:04,VALID,1004.62,VALID,0,VALID,94.5523,VALID,0,VALID,24.1707,VALID,73,VALID,0.00703125,
2011-10-05, 03:18:04,VALID,1004.6,VALID,0,VALID,94.6515,VALID,0,VALID,24.1689,VALID,73,VALID,0.281641,
2011-10-05, 03:19:04,VALID,1004.6,VALID,0,VALID,94.6363,VALID,0.0815089,VALID,24.1902,VALID,73,VALID,0.254687,
2011-10-05, 03:20:04,VALID,1004.58,VALID,0,VALID,94.5981,VALID,0,VALID,24.13,VALID,46,VALID,0.298828,
2011-10-05, 03:21:04,VALID,1004.57,VALID,0,VALID,94.5142,VALID,0,VALID,24.13,VALID,41,VALID,0.355469,
2011-10-05, 03:22:04,VALID,1004.57,VALID,0,VALID,94.4074,VALID,0.0815089,VALID,24.13,VALID,41,VALID,0.0886719,
2011-10-05, 03:23:04,VALID,1004.55,VALID,0,VALID,94.5752,VALID,0,VALID,24.1087,VALID,41,VALID,0.1625,
2011-10-05, 03:24:04,VALID,1004.56,VALID,0,VALID,94.6286,VALID,0,VALID,24.13,VALID,41,VALID,0.0589844,
2011-10-05, 03:25:04,VALID,1004.55,VALID,0,VALID,94.7049,VALID,0,VALID,24.1689,VALID,41,VALID,0.235156,
2011-10-05, 03:26:04,VALID,1004.58,VALID,0,VALID,94.6897,VALID,0.0815089,VALID,24.1671,VALID,41,VALID,0.395312,
2011-10-05, 03:27:04,VALID,1004.56,VALID,0,VALID,94.6744,VALID,0,VALID,24.1671,VALID,41,VALID,0.181641,
2011-10-05, 03:28:04,VALID,1004.57,VALID,0,VALID,94.6973,VALID,0,VALID,24.1865,VALID,41,VALID,0.151172,
2011-10-05, 03:29:04,VALID,1004.59,VALID,0,VALID,94.5752,VALID,0,VALID,24.206,VALID,41,VALID,0.273047,
2011-10-05, 03:30:04,VALID,1004.6,VALID,0,VALID,94.5752,VALID,0,VALID,24.206,VALID,43,VALID,0.340625,
2011-10-05, 03:31:04,VALID,1004.58,VALID,0,VALID,94.6134,VALID,0.0815089,VALID,24.2255,VALID,43,VALID,0.194141,
2011-10-05, 03:32:04,VALID,1004.57,VALID,0,VALID,94.6134,VALID,0,VALID,24.2255,VALID,43,VALID,0.271484,
2011-10-05, 03:33:04,VALID,1004.58,VALID,0,VALID,94.6973,VALID,0,VALID,24.2468,VALID,43,VALID,0.247266,
2011-10-05, 03:34:04,VALID,1004.59,VALID,0,VALID,94.7354,VALID,0,VALID,24.2681,VALID,43,VALID,0.26875,
2011-10-05, 03:35:04,VALID,1004.6,VALID,0,VALID,94.6515,VALID,0,VALID,24.2468,VALID,43,VALID,0.217187,
2011-10-05, 03:36:04,VALID,1004.61,VALID,0,VALID,94.6439,VALID,0,VALID,24.2681,VALID,43,VALID,0.252344,
2011-10-05, 03:37:04,VALID,1004.63,VALID,0,VALID,94.6057,VALID,0,VALID,24.2273,VALID,43,VALID,0.269141,
2011-10-05, 03:38:04,VALID,1004.62,VALID,0,VALID,94.5066,VALID,0,VALID,24.2486,VALID,43,VALID,0.0128906,
2011-10-05, 03:39:04,VALID,1004.57,VALID,0,VALID,94.4913,VALID,0,VALID,24.2291,VALID,43,VALID,0.169141,
2011-10-05, 03:40:04,VALID,1004.6,VALID,0,VALID,94.4532,VALID,0,VALID,24.2273,VALID,43,VALID,0.24375,
2011-10-05, 03:41:04,VALID,1004.57,VALID,0,VALID,94.4379,VALID,0,VALID,24.1902,VALID,43,VALID,0.314063,
2011-10-05, 03:42:04,VALID,1004.58,VALID,0,VALID,94.4303,VALID,0,VALID,24.1689,VALID,43,VALID,0.148828,